[[{"header":{"parameterUnit":"m.s-1","parameterCategory":2,"la1":30.2991,"la2":30.254,"lo1":-89.0895,"lo2":-89.0444,"dy":0.0017,"dx":0.0017,"nx":28,"ny":28,"refTime":"2025-04-24T09:00:00:Z","depth":"0","parameterNumber":2,"parameterNumberName":"U-component_of_CURRENTS"},"data":[0,0,0,0,0,0,0,0,0,0,0,0,0,0,0,0,0,0,0,0,0,0,0,0,0,0,0,0,0,0,0,0,0,0,0,0,0,0,0,0,0,0,0,0,0,0,0,0,0,0,0,0,0,0,0,0,0,0,0.2828,0.2828,0,0.2866,0.2867,0.2867,0.2889,0.2889,0.2889,0.2889,0.2844,0.2843,0.2842,0,0,0,0,0,0,0,0,0,0,0,0,0,0.2803,0.2804,0.2828,0.2828,0.2828,0.2866,0.2867,0.2867,0.2889,0.2889,0.2889,0.2889,0.2845,0.2843,0.2842,0,0,0,0,0,0,0,0,0,0,0,0,0,0.2827,0.2804,0.2828,0.2843,0.2844,0.2866,0.2867,0.2868,0.2889,0.2889,0.2889,0.2889,0.2845,0.2843,0.2842,0.2833,0,0,0.2836,0.2836,0,0,0,0,0,0,0,0,0.2825,0.2828,0.284,0.2842,0.2844,0.2871,0.2842,0.2851,0.2889,0.2874,0.2889,0.2889,0.2844,0.2843,0.2854,0.2831,0.2829,0.2836,0.2835,0.2835,0.2834,0,0,0,0,0,0,0,0.2824,0.2826,0.2845,0.2841,0.2843,0.2858,0.2861,0.2844,0.2859,0.2875,0.2877,0.2878,0.2845,0.2856,0.2853,0.2829,0.2836,0.2835,0.2834,0.2833,0.2828,0.2829,0,0,0,0,0,0,0.2814,0.2825,0.2843,0.2846,0.2832,0.2858,0.2861,0.2864,0.2861,0.2861,0.2878,0.2879,0.2859,0.2855,0.2851,0.2873,0.2835,0.2833,0.2832,0.2827,0.2828,0.2829,0,0,0,0,0,0,0.2813,0.2815,0.2842,0.2835,0.2839,0.2858,0.2861,0.2865,0.2876,0.2864,0.2863,0.2885,0.2858,0.2853,0.2859,0.287,0.2832,0.2831,0.2826,0.2827,0.2829,0.2896,0,0,0,0,0,0,0.2813,0.2815,0.282,0.2834,0.2839,0.2865,0.2861,0.2866,0.2876,0.2877,0.2869,0.2865,0.2858,0.2862,0.2858,0.2867,0.2829,0.2825,0.2827,0.2828,0.2893,0.29,0.2905,0,0,0,0,0,0.2812,0.2819,0.282,0.2823,0.2843,0.2866,0.2871,0.2885,0.2876,0.2892,0.2893,0.2865,0.2869,0.2862,0.2856,0.2865,0.2824,0.2826,0.2828,0.289,0.2898,0.2905,0,0,0,0,0,0,0.281,0.2822,0.2824,0.2834,0.2852,0.2869,0.2882,0.2884,0.2897,0.2895,0.288,0.2877,0.2888,0.2866,0.2859,0.2869,0.284,0.2841,0.2889,0.2896,0.2902,0.2918,0.2828,0,0,0,0,0,0.2811,0.2822,0.2834,0.2845,0.2852,0.2865,0.2875,0.2884,0.2894,0.29,0.2899,0.2892,0.2892,0.2886,0.2885,0.2886,0.2898,0.2886,0.2893,0.2898,0.2908,0.2933,0.2943,0.2836,0.2836,0.2836,0,0,0.2812,0.2821,0.2827,0.2847,0.2859,0.2882,0.2872,0.2891,0.2915,0.289,0.2922,0.2915,0.2899,0.2915,0.2915,0.2897,0.2944,0.2901,0.2906,0.2912,0.2936,0.2947,0.2956,0.2837,0.2837,0.2837,0,0,0.282,0.2829,0.2839,0.2857,0.2878,0.2895,0.2898,0.2919,0.2936,0.2958,0.2953,0.2958,0.2951,0.2956,0.295,0.2984,0.298,0.2976,0.3016,0.304,0.3049,0.3057,0.3126,0.314,0.2974,0.2974,0.2974,0,0.2817,0.2832,0.2848,0.2865,0.288,0.2899,0.2916,0.2944,0.297,0.2984,0.2974,0.2991,0.2972,0.2996,0.3015,0.2998,0.303,0.2989,0.305,0.3058,0.3065,0.3133,0.3147,0.2978,0.2977,0.2977,0.2977,0,0.2835,0.2848,0.2857,0.2888,0.2913,0.2931,0.2967,0.2995,0.3007,0.3031,0.3061,0.3056,0.3064,0.3057,0.3046,0.3087,0.3103,0.3061,0.3034,0.308,0.3149,0.3163,0.2983,0.2982,0.298,0.298,0,0,0.281,0.2857,0.2858,0.2871,0.2922,0.294,0.299,0.3034,0.3068,0.3095,0.3135,0.3139,0.3143,0.3139,0.3128,0.3147,0.3232,0.3133,0.3132,0.3208,0.3334,0.3343,0.3359,0.3205,0.3207,0.3208,0.3377,0,0.281,0.2842,0.287,0.2905,0.2922,0.2961,0.3005,0.3054,0.3101,0.3156,0.3165,0.3202,0.3175,0.3184,0.3203,0.3226,0.3266,0.3194,0.3271,0.3275,0.3281,0.3373,0.32,0.3334,0.339,0.3392,0.3394,0,0.2806,0.2831,0.2859,0.2904,0.2914,0.2942,0.3012,0.3057,0.3146,0.3186,0.3237,0.3263,0.3319,0.3272,0.3358,0.3319,0.3338,0.335,0.3356,0.3346,0.3307,0.3287,0.3356,0.3274,0.3414,0.3413,0.3411,0,0.2771,0.2816,0.2835,0.2852,0.2915,0.2929,0.2966,0.3054,0.3108,0.3217,0.327,0.3343,0.3389,0.3419,0.3468,0.3419,0.3569,0.3493,0.3529,0.3531,0.339,0.3376,0.3386,0.355,0.355,0.3549,0.3549,0,0.275,0.2761,0.2815,0.2823,0.2843,0.2901,0.2944,0.3006,0.3116,0.3175,0.3278,0.3345,0.3426,0.3517,0.3527,0.3608,0.3623,0.3574,0.3578,0.3413,0.34,0.3323,0.3281,0.3556,0.3554,0.3553,0.3552,0,0.2696,0.2735,0.2751,0.2807,0.282,0.2834,0.2915,0.2955,0.3079,0.3166,0.3206,0.3387,0.35,0.3596,0.3684,0.3698,0.3655,0.3767,0.3604,0.3585,0.3505,0.3473,0.3396,0.3296,0.383,0.3832,0.3833,0,0.2668,0.2673,0.2719,0.2712,0.2726,0.276,0.2779,0.2912,0.2968,0.3165,0.3198,0.3383,0.3462,0.3674,0.3723,0.3808,0.3683,0.3737,0.3587,0.3518,0.3484,0.3341,0.325,0.3446,0.3444,0.3442,0.3441,0,0.2589,0.2604,0.2601,0.2614,0.2622,0.2652,0.2696,0.2746,0.2894,0.2991,0.3117,0.321,0.3427,0.3474,0.3661,0.3675,0.3549,0.3703,0.364,0.3214,0.3044,0.2942,0.3363,0.3425,0.3426,0.3427,0.3428,0.3429,0.2489,0.2473,0.2469,0.2477,0.2491,0.2512,0.2504,0.2578,0.2656,0.2767,0.2941,0.3043,0.324,0.3451,0.3466,0.3453,0.342,0.3359,0.3346,0.3224,0.305,0.3482,0.3534,0.3536,0.3538,0.3539,0.3541,0,0.2348,0.2339,0.2331,0.2326,0.2312,0.2376,0.2414,0.2399,0.2425,0.2582,0.2676,0.2863,0.2963,0.3112,0.3205,0.312,0.2937,0.3058,0.2776,0.2716,0.311,0.3015,0.2941,0.2941,0.2942,0.2942,0.2942,0.2942,0.225,0.2195,0.2217,0.2148,0.2151,0.2104,0.2105,0.211,0.2189,0.2271,0.2381,0.2528,0.2823,0.3002,0.2962,0.288,0.264,0.2524,0.2554,0.28,0.2824,0.2846,0.2746,0.2617,0.2617,0.1989,0.1984,0.1981]},{"header":{"parameterUnit":"m.s-1","parameterCategory":2,"la1":30.2991,"la2":30.254,"lo1":-89.0895,"lo2":-89.0444,"dy":0.0017,"dx":0.0017,"nx":28,"ny":28,"refTime":"2025-04-24T09:00:00:Z","depth":"0","parameterNumber":3,"parameterNumberName":"V-component_of_CURRENTS"},"data":[0,0,0,0,0,0,0,0,0,0,0,0,0,0,0,0,0,0,0,0,0,0,0,0,0,0,0,0,0,0,0,0,0,0,0,0,0,0,0,0,0,0,0,0,0,0,0,0,0,0,0,0,0,0,0,0,0,0,0.023,0.023,0,0.0193,0.0192,0.0191,0.0142,0.0142,0.0141,0.0141,-0.0035,-0.004,-0.0044,0,0,0,0,0,0,0,0,0,0,0,0,0,0.0145,0.0147,0.023,0.023,0.023,0.0193,0.0192,0.0191,0.0142,0.0142,0.0141,0.0141,-0.0034,-0.0039,-0.0044,0,0,0,0,0,0,0,0,0,0,0,0,0,0.0148,0.0148,0.023,0.0204,0.0202,0.0193,0.0192,0.0191,0.0142,0.0142,0.0141,0.0141,-0.0032,-0.0039,-0.0045,-0.0073,0,0,-0.0065,-0.0068,0,0,0,0,0,0,0,0,0.0148,0.0151,0.0208,0.0206,0.0203,0.0175,0.0098,0.0097,0.0143,0.016,0.0141,0.014,0.0026,0.0014,0.0004,-0.0081,-0.0089,-0.0065,-0.0069,-0.0072,-0.0074,0,0,0,0,0,0,0,0.0148,0.0152,0.021,0.0208,0.0205,0.0156,0.0156,0.0097,0.0091,0.0159,0.0156,0.0159,0.0023,0.0011,-0.0001,-0.0092,-0.0065,-0.0071,-0.0075,-0.0078,-0.0215,-0.0215,0,0,0,0,0,0,0.0169,0.0153,0.0212,0.021,0.0179,0.0159,0.0159,0.0181,0.0094,0.0083,0.016,0.0157,0.0022,0.0007,-0.0007,-0.0041,-0.0072,-0.0078,-0.0082,-0.0216,-0.0215,-0.0215,0,0,0,0,0,0,0.0168,0.0176,0.0213,0.0182,0.0184,0.0162,0.0187,0.0181,0.0172,0.0098,0.0082,0.0158,0.0021,0.0002,-0.0055,-0.0049,-0.0081,-0.0087,-0.0216,-0.0215,-0.0215,-0.0114,0,0,0,0,0,0,0.0166,0.0176,0.019,0.0185,0.0187,0.0217,0.0188,0.0181,0.0177,0.0173,0.009,0.0074,0.0019,-0.0045,-0.0061,-0.0059,-0.0092,-0.0216,-0.0216,-0.0215,-0.0117,-0.011,-0.0104,0,0,0,0,0,0.0163,0.0192,0.0192,0.0198,0.0212,0.0218,0.0214,0.0191,0.0178,0.0179,0.0123,0.0076,-0.0054,-0.005,-0.0069,-0.0068,-0.0216,-0.0216,-0.0215,-0.0121,-0.0111,-0.0104,0,0,0,0,0,0,0.0159,0.019,0.0189,0.0225,0.0225,0.0211,0.0215,0.0199,0.0159,0.015,0.0075,0.0055,0.0008,-0.0044,-0.0038,-0.0107,-0.0142,-0.0145,-0.0063,-0.0055,-0.0048,-0.0022,-0.0097,0,0,0,0,0,0.017,0.0198,0.0212,0.0236,0.0247,0.0232,0.0229,0.0217,0.0187,0.017,0.0117,0.0053,-0.0005,-0.004,-0.0097,-0.0137,-0.0178,-0.0149,-0.0142,-0.0136,-0.0128,-0.0193,-0.0191,-0.0213,-0.0213,-0.0213,0,0,0.0172,0.0194,0.0207,0.0237,0.0238,0.0259,0.0228,0.0236,0.024,0.0153,0.0136,0.0074,-0.001,-0.0051,-0.0077,-0.0095,-0.0145,-0.0135,-0.0129,-0.0124,-0.0192,-0.019,-0.0188,-0.0213,-0.0213,-0.0213,0,0,0.02,0.0218,0.0256,0.0266,0.0282,0.0276,0.0284,0.0279,0.0265,0.0242,0.018,0.0126,0.0046,-0.001,-0.0052,-0.0043,-0.0105,-0.0063,-0.0011,-0.0074,-0.0073,-0.0072,-0.0091,-0.0093,-0.0061,-0.0061,-0.006,0,0.0203,0.0258,0.0261,0.03,0.0317,0.0292,0.033,0.0312,0.0283,0.0274,0.0249,0.0139,0.0067,0.001,0.0013,-0.0027,-0.0059,-0.0033,-0.0064,-0.0064,-0.0065,-0.0086,-0.0089,-0.0056,-0.0056,-0.0057,-0.0057,0,0.0264,0.0302,0.0326,0.0373,0.0383,0.041,0.0403,0.0397,0.0377,0.0356,0.0309,0.0216,0.0154,0.0119,0.0064,0.0022,0.0006,-0.0044,-0.0079,-0.0056,-0.0079,-0.0085,-0.0049,-0.005,-0.0052,-0.0053,0,0,0.0298,0.036,0.0369,0.0407,0.0429,0.0451,0.0456,0.0463,0.0472,0.0421,0.0424,0.0315,0.0272,0.0222,0.0144,0.0083,0.0052,0.0025,0.0019,0.0018,-0.0055,-0.0018,-0.0021,-0.0006,-0.0007,-0.0008,-0.0056,0,0.0351,0.0441,0.045,0.052,0.0571,0.0551,0.056,0.055,0.053,0.0522,0.0427,0.0392,0.0309,0.0279,0.0208,0.0087,0.0037,0.0071,-0.0087,-0.0091,-0.0053,-0.0027,-0.0017,-0.0055,-0.0062,-0.0063,-0.0064,0,0.0419,0.0472,0.0557,0.0614,0.0634,0.0657,0.0682,0.0685,0.0649,0.0635,0.0583,0.0514,0.0427,0.0349,0.0176,0.0202,0.0089,-0.0006,-0.0012,-0.0018,-0.0065,-0.0088,-0.0066,-0.0222,-0.0073,-0.0072,-0.0071,0,0.0466,0.055,0.0623,0.0645,0.0696,0.0717,0.073,0.0716,0.0741,0.0705,0.0719,0.0604,0.0562,0.0394,0.0219,0.0188,0.0039,-0.0034,-0.0102,-0.01,-0.0142,-0.0141,-0.0283,-0.0157,-0.0156,-0.0156,-0.0156,0,0.0533,0.0591,0.0652,0.0694,0.0771,0.0775,0.0839,0.0831,0.084,0.088,0.078,0.0791,0.0567,0.0459,0.027,0.0099,0.0079,-0.0077,-0.0113,-0.0102,-0.0097,-0.0278,-0.0367,-0.0158,-0.0158,-0.0157,-0.0157,0,0.0578,0.0615,0.0707,0.0774,0.0799,0.0851,0.0927,0.0972,0.0963,0.1012,0.1008,0.0938,0.0804,0.0594,0.0347,0.0192,-0.0083,-0.0062,-0.0001,-0.0029,-0.0241,-0.0323,-0.0492,-0.0551,-0.0149,-0.0148,-0.0148,0,0.0616,0.0668,0.0769,0.0823,0.0858,0.0939,0.0994,0.1028,0.1087,0.1106,0.1141,0.1051,0.1007,0.0705,0.0412,0.0129,-0.0052,-0.0041,-0.0112,-0.0231,-0.0352,-0.0419,-0.0462,-0.0124,-0.0124,-0.0123,-0.0123,0,0.0684,0.0712,0.0779,0.0892,0.0971,0.1075,0.1158,0.1232,0.1267,0.1313,0.1353,0.1319,0.1061,0.0803,0.0453,0.024,-0.0132,-0.0036,-0.0208,-0.0368,-0.0408,-0.0487,-0.0084,-0.0118,-0.0118,-0.0119,-0.0119,-0.0119,0.0725,0.0781,0.0861,0.097,0.1062,0.1185,0.1278,0.1371,0.1478,0.1542,0.1514,0.1497,0.1137,0.0668,0.0386,-0.0089,-0.0112,-0.0266,-0.036,-0.0418,-0.0469,-0.0013,-0.0058,-0.0058,-0.0059,-0.0059,-0.0059,0,0.0782,0.0837,0.0938,0.1065,0.1173,0.1218,0.137,0.146,0.1587,0.1658,0.1685,0.1523,0.108,0.0626,-0.0013,-0.0363,-0.0505,-0.0555,-0.0689,-0.0721,-0.0366,-0.0358,-0.0412,-0.0412,-0.0412,-0.0412,-0.0411,-0.0411,0.0811,0.0904,0.0957,0.1134,0.1226,0.1379,0.1472,0.1588,0.1677,0.1769,0.1782,0.176,0.1428,0.0266,-0.051,-0.069,-0.0957,-0.1005,-0.112,-0.0924,-0.0906,-0.0888,-0.0904,-0.1071,-0.1072,-0.1439,-0.1443,-0.1446]}],[{"header":{"parameterUnit":"m.s-1","parameterCategory":2,"la1":30.2991,"la2":30.254,"lo1":-89.0895,"lo2":-89.0444,"dy":0.0017,"dx":0.0017,"nx":28,"ny":28,"refTime":"2025-04-24T09:00:00:Z","depth":"2","parameterNumber":2,"parameterNumberName":"U-component_of_CURRENTS"},"data":[0,0,0,0,0,0,0,0,0,0,0,0,0,0,0,0,0,0,0,0,0,0,0,0,0,0,0,0,0,0,0,0,0,0,0,0,0,0,0,0,0,0,0,0,0,0,0,0,0,0,0,0,0,0,0,0,0,0,0.243,0.2429,0,0.2402,0.2402,0.2401,0.2423,0.2423,0.2424,0.2425,0.2565,0.2568,0.2571,0,0,0,0,0,0,0,0,0,0,0,0,0,0.2349,0.2351,0.243,0.2429,0.2429,0.2402,0.2402,0.2401,0.2422,0.2423,0.2424,0.2425,0.2564,0.2567,0.2571,0,0,0,0,0,0,0,0,0,0,0,0,0,0.236,0.2352,0.243,0.2435,0.2435,0.2402,0.2402,0.2401,0.2422,0.2423,0.2425,0.2426,0.2563,0.2567,0.2571,0.2575,0,0,0.2585,0.2587,0,0,0,0,0,0,0,0,0.236,0.2364,0.2435,0.2435,0.2435,0.2416,0.2424,0.2467,0.2422,0.2429,0.2425,0.2426,0.2529,0.2536,0.2528,0.2582,0.2588,0.2586,0.2588,0.259,0.2591,0,0,0,0,0,0,0,0.2359,0.2364,0.242,0.2434,0.2434,0.2386,0.2391,0.2431,0.2477,0.2428,0.2429,0.2423,0.253,0.2523,0.2532,0.259,0.2585,0.2589,0.2592,0.2594,0.2822,0.2825,0,0,0,0,0,0,0.2367,0.2364,0.2421,0.2419,0.2398,0.2387,0.2392,0.2422,0.2473,0.248,0.2422,0.2424,0.2515,0.2526,0.2537,0.2665,0.259,0.2594,0.2597,0.2819,0.2823,0.2827,0,0,0,0,0,0,0.2366,0.2374,0.2422,0.2387,0.239,0.2388,0.242,0.242,0.2443,0.2466,0.2477,0.2449,0.2516,0.2531,0.2639,0.2666,0.2596,0.26,0.2815,0.282,0.2825,0.2844,0,0,0,0,0,0,0.2364,0.2375,0.2423,0.2389,0.2392,0.2436,0.2419,0.2419,0.2435,0.2439,0.2492,0.2504,0.2518,0.2633,0.2644,0.2671,0.2604,0.2811,0.2817,0.2823,0.2839,0.2849,0.2858,0,0,0,0,0,0.2362,0.2387,0.2426,0.2434,0.2453,0.2437,0.2436,0.2436,0.2436,0.2459,0.252,0.2504,0.268,0.264,0.2651,0.2681,0.2807,0.2815,0.2823,0.2835,0.2847,0.2858,0,0,0,0,0,0,0.2386,0.2391,0.2433,0.2468,0.2482,0.2441,0.2447,0.2452,0.2508,0.2525,0.2551,0.257,0.2661,0.2689,0.2643,0.2772,0.2739,0.2749,0.2744,0.2756,0.2765,0.2701,0.2608,0,0,0,0,0,0.2417,0.243,0.2449,0.2479,0.2487,0.2481,0.2482,0.2488,0.2513,0.2536,0.2559,0.262,0.2694,0.2743,0.2788,0.287,0.2877,0.29,0.2909,0.2917,0.2878,0.2971,0.2984,0.2851,0.2851,0.2851,0,0,0.2421,0.2435,0.2441,0.2484,0.2485,0.2503,0.2485,0.249,0.2512,0.2547,0.2589,0.2643,0.2723,0.2806,0.2851,0.2841,0.2962,0.2926,0.2931,0.2888,0.298,0.2992,0.3003,0.2857,0.2856,0.2855,0,0,0.2415,0.2467,0.248,0.25,0.2525,0.2523,0.2537,0.2526,0.2542,0.2615,0.2638,0.2717,0.2816,0.2859,0.2908,0.3003,0.2997,0.3031,0.3036,0.3129,0.3138,0.3147,0.3168,0.3179,0.3049,0.3049,0.3049,0,0.2442,0.2467,0.2481,0.251,0.2521,0.2539,0.2562,0.2578,0.2605,0.2629,0.2648,0.2775,0.2835,0.2935,0.297,0.3015,0.3049,0.2981,0.3135,0.3144,0.3153,0.3172,0.3183,0.3051,0.3051,0.3051,0.3051,0,0.247,0.2483,0.2479,0.2532,0.256,0.2565,0.2601,0.2618,0.2647,0.2676,0.2764,0.2838,0.2921,0.2957,0.2999,0.3088,0.3084,0.3122,0.309,0.3166,0.3183,0.3194,0.3054,0.3053,0.3053,0.3052,0,0,0.2486,0.2502,0.2497,0.2511,0.2569,0.2578,0.2623,0.2667,0.2698,0.2753,0.28,0.2916,0.2943,0.2997,0.3043,0.3107,0.3203,0.314,0.3145,0.3128,0.3368,0.3231,0.323,0.3285,0.3288,0.329,0.3351,0,0.2497,0.2531,0.2547,0.2559,0.2561,0.26,0.2638,0.2696,0.275,0.2798,0.2875,0.2954,0.2971,0.3022,0.3093,0.3184,0.3235,0.3178,0.3322,0.3324,0.3169,0.324,0.3038,0.3065,0.3361,0.3363,0.3365,0,0.2494,0.2512,0.2541,0.2542,0.2557,0.2592,0.265,0.2691,0.278,0.2827,0.2909,0.2975,0.3072,0.308,0.3237,0.3211,0.3277,0.3324,0.333,0.3188,0.3208,0.3043,0.3073,0.3383,0.3381,0.338,0.3379,0,0.2446,0.247,0.249,0.2505,0.2553,0.2576,0.2615,0.2703,0.2752,0.2842,0.2907,0.3019,0.3098,0.3201,0.3295,0.3304,0.3434,0.3482,0.3395,0.3385,0.3225,0.3195,0.3569,0.3569,0.3569,0.3568,0.3568,0,0.2402,0.2393,0.2467,0.247,0.2499,0.2557,0.2605,0.2649,0.2754,0.2814,0.2923,0.2976,0.3141,0.3237,0.3309,0.3363,0.3468,0.3371,0.3398,0.3226,0.3197,0.3483,0.3472,0.3571,0.357,0.357,0.3569,0,0.2305,0.2354,0.2354,0.2429,0.2456,0.2481,0.2587,0.2623,0.2732,0.2808,0.2846,0.2999,0.3109,0.322,0.3375,0.3377,0.3442,0.3425,0.316,0.3152,0.3324,0.3315,0.3363,0.3358,0.3355,0.3352,0.335,0,0.2261,0.2254,0.2323,0.2337,0.2365,0.2422,0.2458,0.2581,0.2628,0.2791,0.2817,0.2966,0.3027,0.3171,0.3208,0.3278,0.3359,0.3084,0.3053,0.3283,0.3307,0.3303,0.3298,0.2861,0.2855,0.285,0.2846,0,0.2168,0.2198,0.2219,0.2251,0.2285,0.2321,0.2387,0.2432,0.2561,0.2643,0.2732,0.2808,0.2938,0.2909,0.2972,0.2987,0.3058,0.2978,0.3341,0.2923,0.281,0.2833,0.2846,0.28,0.2805,0.2808,0.2811,0.2812,0.2107,0.2101,0.2136,0.2157,0.219,0.2205,0.2204,0.2283,0.2349,0.2439,0.2563,0.26,0.2675,0.2677,0.2623,0.2597,0.2819,0.2727,0.2744,0.2767,0.2676,0.2562,0.2485,0.2487,0.249,0.2492,0.2493,0,0.2026,0.2033,0.2044,0.2059,0.2045,0.2103,0.2139,0.2122,0.2139,0.2246,0.2314,0.2194,0.22,0.227,0.2181,0.2194,0.22,0.2099,0.2102,0.2151,0.2194,0.2074,0.1722,0.1719,0.1716,0.1713,0,0,0.1985,0.196,0.1966,0.1916,0.1922,0.1875,0.187,0.1864,0.191,0.1904,0.1919,0.2105,0.2213,0.1924,0.1915,0.1795,0.195,0.1732,0.2365,0.2419,0.2457,0.2585,0.2458,0,0,0,0,0]},{"header":{"parameterUnit":"m.s-1","parameterCategory":2,"la1":30.2991,"la2":30.254,"lo1":-89.0895,"lo2":-89.0444,"dy":0.0017,"dx":0.0017,"nx":28,"ny":28,"refTime":"2025-04-24T09:00:00:Z","depth":"2","parameterNumber":3,"parameterNumberName":"V-component_of_CURRENTS"},"data":[0,0,0,0,0,0,0,0,0,0,0,0,0,0,0,0,0,0,0,0,0,0,0,0,0,0,0,0,0,0,0,0,0,0,0,0,0,0,0,0,0,0,0,0,0,0,0,0,0,0,0,0,0,0,0,0,0,0,0.0102,0.0102,0,0.0043,0.0042,0.0041,-0.001,-0.001,-0.001,-0.0011,-0.0198,-0.0202,-0.0207,0,0,0,0,0,0,0,0,0,0,0,0,0,0.0067,0.0069,0.0102,0.0102,0.0101,0.0043,0.0042,0.0041,-0.001,-0.001,-0.001,-0.0011,-0.0196,-0.0202,-0.0207,0,0,0,0,0,0,0,0,0,0,0,0,0,0.0049,0.0069,0.0102,0.0072,0.0069,0.0043,0.0042,0.004,-0.001,-0.001,-0.0011,-0.0011,-0.0194,-0.0201,-0.0208,-0.0246,0,0,-0.023,-0.0233,0,0,0,0,0,0,0,0,0.005,0.005,0.0077,0.0074,0.0071,0.0027,-0.0039,-0.0061,-0.001,0.0016,-0.0011,-0.0011,-0.0132,-0.0144,-0.0158,-0.0255,-0.0263,-0.0231,-0.0235,-0.0238,-0.024,0,0,0,0,0,0,0,0.0052,0.0052,0.0075,0.0077,0.0073,0.0026,0.0023,-0.0044,-0.0061,0.0014,0.0011,0.001,-0.0135,-0.0151,-0.0163,-0.0266,-0.0231,-0.0237,-0.0241,-0.0244,-0.0441,-0.0442,0,0,0,0,0,0,0.0073,0.0054,0.0077,0.0073,0.0064,0.0027,0.0024,0.0038,-0.0057,-0.007,0.0011,0.0008,-0.0138,-0.0155,-0.017,-0.0219,-0.0238,-0.0245,-0.0249,-0.044,-0.0441,-0.0442,0,0,0,0,0,0,0.0073,0.0076,0.0079,0.0064,0.0062,0.003,0.0044,0.0037,0.0024,-0.0057,-0.0073,0.0006,-0.0139,-0.016,-0.0237,-0.0227,-0.0248,-0.0255,-0.0439,-0.0441,-0.0442,-0.032,0,0,0,0,0,0,0.0072,0.0077,0.0084,0.0066,0.0064,0.0072,0.0045,0.0036,0.0026,0.0022,-0.0067,-0.0085,-0.0141,-0.0226,-0.0244,-0.0237,-0.026,-0.0438,-0.044,-0.0441,-0.0322,-0.0317,-0.0312,0,0,0,0,0,0.0072,0.0095,0.0085,0.0087,0.0078,0.0073,0.0066,0.0038,0.0026,0.0024,-0.0046,-0.0082,-0.025,-0.0232,-0.0254,-0.0249,-0.0437,-0.0439,-0.0441,-0.0325,-0.0318,-0.0312,0,0,0,0,0,0,0.0075,0.0092,0.008,0.0104,0.009,0.0066,0.0065,0.0045,-0.0008,-0.0016,-0.0096,-0.0119,-0.0178,-0.0242,-0.0221,-0.0315,-0.0349,-0.0355,-0.0253,-0.0247,-0.0242,-0.0198,-0.0266,0,0,0,0,0,0.0082,0.0109,0.0101,0.0116,0.0118,0.009,0.0082,0.0066,0.0024,0.0003,-0.0059,-0.0137,-0.0204,-0.0247,-0.0313,-0.0371,-0.0407,-0.0385,-0.0379,-0.0374,-0.0356,-0.0431,-0.0429,-0.0449,-0.0449,-0.0449,0,0,0.0084,0.0099,0.0109,0.0119,0.0108,0.0116,0.0084,0.0085,0.0077,-0.0013,-0.0051,-0.0116,-0.0215,-0.027,-0.0303,-0.0323,-0.0381,-0.0377,-0.0371,-0.0356,-0.0433,-0.0431,-0.0428,-0.0451,-0.045,-0.045,0,0,0.0113,0.012,0.0152,0.015,0.015,0.0135,0.0141,0.0119,0.0096,0.005,-0.0013,-0.0072,-0.0178,-0.0237,-0.0284,-0.0297,-0.0344,-0.0323,-0.0265,-0.0337,-0.0335,-0.0334,-0.0335,-0.0335,-0.0327,-0.0326,-0.0326,0,0.0109,0.0155,0.0153,0.018,0.0186,0.0152,0.0175,0.0145,0.0095,0.0079,0.005,-0.0079,-0.0159,-0.0222,-0.0225,-0.0279,-0.0307,-0.0272,-0.0325,-0.0326,-0.0326,-0.0329,-0.033,-0.0321,-0.0321,-0.0322,-0.0323,0,0.0162,0.0191,0.0211,0.0238,0.0239,0.0255,0.0228,0.021,0.0179,0.0151,0.0094,-0.0009,-0.0081,-0.0119,-0.0177,-0.022,-0.023,-0.0298,-0.0326,-0.0316,-0.032,-0.0323,-0.0313,-0.0315,-0.0316,-0.0318,0,0,0.0189,0.0238,0.0245,0.0271,0.0276,0.0287,0.0275,0.0263,0.0264,0.02,0.0192,0.008,0.0045,-0.0012,-0.0089,-0.0154,-0.0174,-0.0217,-0.0224,-0.0188,-0.0279,-0.0278,-0.0282,-0.0254,-0.0255,-0.0255,-0.0262,0,0.023,0.0296,0.0306,0.0355,0.0391,0.0363,0.0359,0.0337,0.0303,0.0282,0.0192,0.0149,0.0077,0.0048,-0.0023,-0.014,-0.0185,-0.0162,-0.0321,-0.0324,-0.0302,-0.0288,-0.0248,-0.0252,-0.0266,-0.0267,-0.0267,0,0.0292,0.033,0.0388,0.0434,0.0445,0.0458,0.0463,0.0453,0.0408,0.0381,0.0335,0.0272,0.0196,0.0115,-0.004,-0.002,-0.0129,-0.022,-0.0225,-0.0269,-0.0332,-0.0279,-0.0258,-0.0274,-0.0273,-0.0273,-0.0273,0,0.0336,0.0397,0.0446,0.046,0.0492,0.0504,0.0509,0.0486,0.0495,0.0449,0.0456,0.0357,0.0311,0.0162,-0.0003,-0.0028,-0.0172,-0.0243,-0.0331,-0.0329,-0.0349,-0.0348,-0.0358,-0.0358,-0.0358,-0.0358,-0.0358,0,0.0395,0.0439,0.0472,0.05,0.0558,0.0557,0.0602,0.0584,0.0582,0.0605,0.0516,0.0511,0.0311,0.021,0.0045,-0.0125,-0.0136,-0.0297,-0.0341,-0.0302,-0.0298,-0.0378,-0.0381,-0.0358,-0.0358,-0.0358,-0.0358,0,0.0443,0.0462,0.0527,0.0567,0.0586,0.0623,0.0677,0.0706,0.069,0.0718,0.0714,0.0632,0.0503,0.0323,0.009,-0.0053,-0.0232,-0.0299,-0.0196,-0.0228,-0.034,-0.0337,-0.0378,-0.0378,-0.0379,-0.0379,-0.0379,0,0.0471,0.0509,0.0575,0.0616,0.0639,0.0696,0.0738,0.0752,0.0792,0.079,0.0811,0.0718,0.0659,0.0372,0.0106,-0.0134,-0.0209,-0.0268,-0.0333,-0.0308,-0.0347,-0.0343,-0.0339,-0.0288,-0.0287,-0.0286,-0.0286,0,0.0522,0.054,0.0589,0.0676,0.0734,0.0807,0.087,0.0923,0.0936,0.0966,0.0977,0.0936,0.0685,0.045,0.0128,-0.0046,-0.0223,-0.0266,-0.0292,-0.0294,-0.0226,-0.0263,-0.0262,-0.0281,-0.0282,-0.0282,-0.0282,-0.0283,0.0551,0.0593,0.0656,0.0741,0.0813,0.0901,0.0967,0.1036,0.1111,0.1153,0.1106,0.1051,0.0788,0.039,0.0106,-0.0184,-0.0194,-0.0309,-0.0309,-0.0311,-0.0304,-0.0242,-0.0294,-0.0295,-0.0295,-0.0295,-0.0296,0,0.0588,0.0639,0.0719,0.0818,0.0902,0.0935,0.1045,0.1107,0.1199,0.1239,0.125,0.1013,0.0757,0.0454,0.0031,-0.0233,-0.0258,-0.0313,-0.0293,-0.0294,-0.0296,-0.029,-0.0276,-0.0277,-0.0277,-0.0278,0,0,0.0609,0.0686,0.073,0.0872,0.0946,0.1056,0.1121,0.121,0.1268,0.1306,0.1286,0.1227,0.0859,0.0556,0.0206,-0.0036,-0.0106,-0.008,-0.0065,-0.0,0.0001,-0.026,-0.0248,0,0,0,0,0]}],[{"header":{"parameterUnit":"m.s-1","parameterCategory":2,"la1":30.2991,"la2":30.254,"lo1":-89.0895,"lo2":-89.0444,"dy":0.0017,"dx":0.0017,"nx":28,"ny":28,"refTime":"2025-04-24T09:00:00:Z","depth":"4","parameterNumber":2,"parameterNumberName":"U-component_of_CURRENTS"},"data":[0,0,0,0,0,0,0,0,0,0,0,0,0,0,0,0,0,0,0,0,0,0,0,0,0,0,0,0,0,0,0,0,0,0,0,0,0,0,0,0,0,0,0,0,0,0,0,0,0,0,0,0,0,0,0,0,0,0,0.1367,0.1368,0,0.1444,0.1444,0.1444,0.1474,0.1474,0.1475,0.1475,0.1449,0.1448,0.1447,0,0,0,0,0,0,0,0,0,0,0,0,0,0.1237,0.1238,0.1367,0.1368,0.137,0.1444,0.1444,0.1444,0.1474,0.1474,0.1475,0.1476,0.1449,0.1448,0.1447,0,0,0,0,0,0,0,0,0,0,0,0,0,0.1293,0.1239,0.1366,0.14,0.1404,0.1444,0.1444,0.1444,0.1474,0.1474,0.1475,0.1476,0.145,0.1448,0.1446,0.1419,0,0,0.1441,0.144,0,0,0,0,0,0,0,0,0.129,0.1297,0.1393,0.1398,0.1403,0.1457,0.1389,0.1434,0.1473,0.1438,0.1475,0.1476,0.1447,0.1446,0.1448,0.1418,0.1417,0.1441,0.144,0.1439,0.1438,0,0,0,0,0,0,0,0.1286,0.1294,0.1389,0.1395,0.1401,0.1409,0.1417,0.1398,0.1429,0.1442,0.1446,0.1468,0.1448,0.145,0.1447,0.1416,0.1441,0.1439,0.1438,0.1437,0.1487,0.1489,0,0,0,0,0,0,0.1293,0.129,0.1387,0.1392,0.1357,0.1411,0.142,0.1432,0.1432,0.1436,0.1467,0.1469,0.1452,0.1449,0.1446,0.1504,0.1439,0.1437,0.1436,0.1484,0.1487,0.149,0,0,0,0,0,0,0.129,0.13,0.1384,0.135,0.1362,0.1413,0.1427,0.1434,0.1469,0.1453,0.1454,0.15,0.1453,0.1449,0.1457,0.1499,0.1436,0.1435,0.1481,0.1485,0.1488,0.156,0,0,0,0,0,0,0.1285,0.1298,0.1313,0.135,0.1365,0.1427,0.1427,0.1435,0.1483,0.1487,0.1481,0.1478,0.1453,0.146,0.1455,0.1496,0.1433,0.1478,0.1483,0.1487,0.1554,0.1565,0.1575,0,0,0,0,0,0.128,0.1303,0.1313,0.1326,0.1382,0.1429,0.1436,0.1469,0.1484,0.1502,0.1502,0.148,0.1486,0.1459,0.1454,0.1495,0.1476,0.1482,0.1487,0.155,0.1563,0.1575,0,0,0,0,0,0,0.1259,0.131,0.1322,0.136,0.1401,0.1438,0.1471,0.1489,0.1504,0.1515,0.149,0.1487,0.1518,0.1497,0.1469,0.1528,0.1486,0.149,0.1536,0.1548,0.1558,0.1544,0.1432,0,0,0,0,0,0.126,0.1289,0.1337,0.137,0.1398,0.1438,0.1465,0.1489,0.1511,0.1521,0.1517,0.1521,0.153,0.1532,0.1531,0.1545,0.1532,0.1577,0.1587,0.1596,0.1584,0.1601,0.161,0.1507,0.1507,0.1507,0,0,0.1262,0.1296,0.1313,0.1367,0.1405,0.1445,0.1455,0.1514,0.154,0.1512,0.1545,0.1553,0.1544,0.1571,0.1584,0.1559,0.1627,0.1602,0.1609,0.1593,0.1607,0.1617,0.1625,0.1511,0.151,0.151,0,0,0.1282,0.1315,0.1347,0.1385,0.1454,0.1475,0.15,0.1552,0.1572,0.1601,0.1602,0.1628,0.1633,0.1637,0.1638,0.1702,0.1683,0.1726,0.1757,0.1774,0.1782,0.1788,0.1814,0.1822,0.1727,0.1727,0.1728,0,0.1286,0.1328,0.1365,0.1411,0.145,0.1493,0.1538,0.1562,0.1604,0.1621,0.1624,0.1667,0.1661,0.1694,0.1724,0.1722,0.1734,0.1707,0.1785,0.1791,0.1796,0.1821,0.1829,0.1732,0.1731,0.1731,0.173,0,0.1319,0.1369,0.1401,0.1462,0.1502,0.1555,0.1599,0.1635,0.1666,0.1683,0.1734,0.1734,0.1759,0.1779,0.1766,0.1819,0.1818,0.1797,0.1746,0.181,0.1833,0.184,0.1737,0.1736,0.1735,0.1734,0,0,0.13,0.14,0.1418,0.1459,0.1538,0.1576,0.1628,0.1679,0.1716,0.1752,0.1794,0.1824,0.1839,0.1843,0.185,0.1862,0.1922,0.1852,0.1851,0.1865,0.1978,0.1878,0.1876,0.192,0.1921,0.1922,0.1989,0,0.1322,0.1407,0.1449,0.1532,0.1584,0.1636,0.1676,0.1726,0.1762,0.1806,0.1829,0.1872,0.1861,0.1893,0.1906,0.192,0.194,0.1906,0.1924,0.1925,0.1816,0.1879,0.1925,0.1994,0.1995,0.1996,0.1997,0,0.1343,0.1401,0.1482,0.1577,0.1606,0.1652,0.1733,0.1774,0.1834,0.1864,0.1909,0.193,0.1976,0.1952,0.1997,0.1983,0.1988,0.1986,0.1989,0.1864,0.1835,0.1911,0.2009,0.2008,0.2007,0.2006,0.2006,0,0.1317,0.1427,0.1491,0.1526,0.1629,0.1676,0.1729,0.1797,0.184,0.1911,0.1956,0.1996,0.2043,0.2048,0.2059,0.2043,0.2093,0.2067,0.198,0.1974,0.201,0.2002,0.2088,0.2088,0.2088,0.2087,0.2087,0,0.132,0.1383,0.149,0.1529,0.1606,0.1679,0.1755,0.1809,0.1889,0.1936,0.1992,0.2036,0.2072,0.2105,0.2089,0.206,0.2125,0.1989,0.198,0.2045,0.204,0.2017,0.2007,0.209,0.2089,0.2089,0.2088,0,0.1297,0.1365,0.1447,0.1561,0.1601,0.1659,0.1781,0.182,0.1911,0.198,0.2014,0.2097,0.2139,0.2158,0.2176,0.2102,0.2077,0.2049,0.214,0.2135,0.1942,0.1937,0.1957,0.1954,0.1951,0.1949,0.1947,0,0.1289,0.1332,0.146,0.1504,0.1566,0.166,0.171,0.1817,0.1858,0.1997,0.2017,0.2113,0.2147,0.2095,0.2121,0.2093,0.2059,0.2033,0.1957,0.1937,0.1928,0.1926,0.1924,0.1943,0.1943,0.1942,0.1941,0,0.1278,0.1332,0.1398,0.1479,0.1548,0.1611,0.1699,0.1723,0.1831,0.1941,0.1973,0.1987,0.2035,0.2031,0.2029,0.1998,0.2036,0.2005,0.2009,0.1937,0.1921,0.1914,0.1915,0.1932,0.1933,0.1934,0.1935,0,0.1271,0.13,0.1379,0.1438,0.1515,0.1533,0.1589,0.1638,0.1694,0.1838,0.1849,0.1937,0.2026,0.1986,0.198,0.1948,0.1908,0.182,0.1833,0.1843,0.1769,0.1729,0.1677,0,0,0,0,0,0.1253,0.1267,0.1324,0.137,0.1436,0.1471,0.1562,0.1612,0.1722,0.1703,0.1771,0.1803,0.1808,0.1856,0.1797,0.1926,0.1912,0.1848,0.1817,0.1882,0.1892,0.1812,0,0,0,0,0,0,0.1242,0.1294,0.1299,0.1295,0.1305,0.1354,0.1401,0.1474,0.1472,0.1594,0.1608,0.17,0.1732,0.1825,0.1765,0.1777,0.172,0.1908,0.1903,0.1876,0.1885,0.1894,0.1815,0,0,0,0,0]},{"header":{"parameterUnit":"m.s-1","parameterCategory":2,"la1":30.2991,"la2":30.254,"lo1":-89.0895,"lo2":-89.0444,"dy":0.0017,"dx":0.0017,"nx":28,"ny":28,"refTime":"2025-04-24T09:00:00:Z","depth":"4","parameterNumber":3,"parameterNumberName":"V-component_of_CURRENTS"},"data":[0,0,0,0,0,0,0,0,0,0,0,0,0,0,0,0,0,0,0,0,0,0,0,0,0,0,0,0,0,0,0,0,0,0,0,0,0,0,0,0,0,0,0,0,0,0,0,0,0,0,0,0,0,0,0,0,0,0,0.0136,0.0135,0,0.009,0.0089,0.0089,0.0066,0.0066,0.0066,0.0066,0.0058,0.0057,0.0057,0,0,0,0,0,0,0,0,0,0,0,0,0,0.0153,0.0153,0.0136,0.0135,0.0135,0.009,0.0089,0.0088,0.0066,0.0066,0.0066,0.0066,0.0058,0.0057,0.0057,0,0,0,0,0,0,0,0,0,0,0,0,0,0.013,0.0153,0.0136,0.0118,0.0116,0.009,0.0089,0.0088,0.0066,0.0066,0.0066,0.0066,0.0058,0.0057,0.0057,0.0054,0,0,0.0056,0.0056,0,0,0,0,0,0,0,0,0.0132,0.013,0.0122,0.012,0.0117,0.0084,0.0092,0.0079,0.0066,0.0085,0.0066,0.0066,0.007,0.0068,0.0059,0.0054,0.0053,0.0056,0.0056,0.0055,0.0055,0,0,0,0,0,0,0,0.0134,0.0131,0.0118,0.0121,0.0118,0.0095,0.0092,0.0089,0.0079,0.0084,0.0082,0.0077,0.0069,0.006,0.0059,0.0053,0.0056,0.0056,0.0055,0.0055,0.005,0.005,0,0,0,0,0,0,0.0142,0.0133,0.0119,0.0116,0.0125,0.0095,0.0092,0.0095,0.0078,0.0075,0.0077,0.0076,0.006,0.0059,0.0059,0.0068,0.0056,0.0055,0.0055,0.0049,0.005,0.005,0,0,0,0,0,0,0.0143,0.0142,0.0121,0.0123,0.0119,0.0095,0.0098,0.0094,0.0087,0.0072,0.007,0.0075,0.006,0.0059,0.0061,0.0067,0.0055,0.0055,0.0049,0.0049,0.005,0.0078,0,0,0,0,0,0,0.0144,0.0142,0.015,0.0124,0.0119,0.011,0.0098,0.0093,0.0084,0.0082,0.007,0.0069,0.006,0.0062,0.0061,0.0066,0.0054,0.0049,0.0049,0.005,0.0077,0.0079,0.0081,0,0,0,0,0,0.0144,0.0154,0.015,0.0149,0.013,0.011,0.0106,0.0088,0.0084,0.0082,0.0076,0.007,0.0062,0.0062,0.006,0.0066,0.0049,0.0049,0.005,0.0076,0.0079,0.0081,0,0,0,0,0,0,0.0168,0.0152,0.0147,0.0153,0.0135,0.0107,0.0105,0.0092,0.0084,0.0087,0.0073,0.0072,0.0074,0.0066,0.0066,0.0064,0.0053,0.0053,0.0074,0.0076,0.0078,0.0081,0.0054,0,0,0,0,0,0.0176,0.0178,0.0157,0.0161,0.0156,0.0132,0.0123,0.0111,0.0098,0.0094,0.0084,0.0076,0.0072,0.0072,0.0065,0.0067,0.0045,0.0068,0.007,0.0072,0.0073,0.0047,0.0047,0.005,0.005,0.005,0,0,0.0185,0.0177,0.0177,0.0166,0.0153,0.0149,0.0127,0.0117,0.0115,0.0096,0.0095,0.0084,0.0074,0.0074,0.0074,0.007,0.0057,0.0072,0.0074,0.0073,0.0048,0.0047,0.0047,0.005,0.005,0.005,0,0,0.02,0.0199,0.0204,0.0194,0.0179,0.0164,0.0164,0.0139,0.0131,0.0127,0.0112,0.0104,0.0098,0.0087,0.0084,0.0092,0.0067,0.0091,0.0106,0.0082,0.0081,0.008,0.0042,0.0038,0.0094,0.0094,0.0094,0,0.0214,0.022,0.0201,0.0205,0.0203,0.0174,0.0181,0.0166,0.0144,0.014,0.0133,0.0113,0.0104,0.0101,0.0102,0.0097,0.0074,0.01,0.0084,0.0083,0.0082,0.0043,0.0038,0.0095,0.0095,0.0095,0.0095,0,0.0232,0.0238,0.0241,0.0239,0.0233,0.0233,0.0213,0.0205,0.0192,0.0175,0.0166,0.0145,0.0133,0.0127,0.0119,0.0108,0.0091,0.0089,0.0079,0.0084,0.0042,0.0036,0.0097,0.0097,0.0096,0.0096,0,0,0.0256,0.0256,0.0257,0.0266,0.0254,0.0252,0.025,0.0238,0.024,0.0211,0.0208,0.0189,0.0169,0.0162,0.0144,0.0122,0.0091,0.0106,0.0104,0.0069,0.0026,0.0011,0.0002,0.0088,0.0087,0.0087,-0.0003,0,0.0277,0.0297,0.0288,0.0307,0.0316,0.0298,0.0299,0.0285,0.0268,0.0255,0.022,0.0213,0.0185,0.0183,0.0154,0.011,0.0079,0.0115,0.0025,0.0022,0.001,-0.0003,0.0085,-0.0008,-0.0009,-0.001,-0.0011,0,0.0294,0.0308,0.0333,0.0347,0.0351,0.0358,0.036,0.0356,0.0327,0.0314,0.0288,0.0259,0.0219,0.02,0.0112,0.0137,0.0083,0.0043,0.0039,0.0012,-0.0003,-0.0011,-0.0022,-0.0021,-0.002,-0.0019,-0.0019,0,0.0318,0.0338,0.0363,0.0368,0.0378,0.0388,0.0391,0.0375,0.0385,0.0351,0.0353,0.0291,0.027,0.0192,0.0102,0.0109,-0.0001,-0.0001,-0.0072,-0.0074,-0.0046,-0.0044,-0.0065,-0.0065,-0.0065,-0.0065,-0.0064,0,0.0338,0.0359,0.0379,0.0393,0.0431,0.0422,0.0452,0.0442,0.0436,0.0452,0.0389,0.0384,0.027,0.0195,0.0105,-0.0008,-0.0004,-0.0077,-0.0097,-0.0033,-0.0029,-0.0051,-0.0048,-0.0068,-0.0067,-0.0067,-0.0066,0,0.0353,0.0365,0.0399,0.0426,0.0442,0.0467,0.0505,0.0522,0.051,0.0526,0.0521,0.0451,0.0348,0.0221,0.0087,0.0006,-0.0104,-0.0145,-0.0083,-0.0096,-0.0165,-0.0159,-0.0233,-0.0235,-0.0236,-0.0237,-0.0237,0,0.0359,0.0378,0.043,0.0462,0.0479,0.052,0.0549,0.0557,0.0582,0.0571,0.0583,0.0493,0.0428,0.0222,0.008,-0.0117,-0.0136,-0.0204,-0.0175,-0.017,-0.0182,-0.0175,-0.0168,-0.0239,-0.0239,-0.024,-0.024,0,0.0373,0.0394,0.0428,0.0496,0.0541,0.0592,0.0637,0.0664,0.067,0.0666,0.0639,0.0528,0.0402,0.0232,0.0068,-0.0065,-0.0167,-0.0215,-0.0214,-0.0187,-0.0177,-0.0187,-0.0179,-0.0243,-0.0243,-0.0243,-0.0242,0,0.0384,0.0413,0.0463,0.0525,0.0588,0.0644,0.0666,0.0696,0.0717,0.0707,0.0695,0.0557,0.0476,0.0258,0.0114,-0.0033,-0.0061,-0.01,-0.0104,-0.0102,-0.0038,-0.0006,-0.0041,0,0,0,0,0,0.0389,0.0427,0.0488,0.0555,0.0621,0.0659,0.0718,0.0733,0.0746,0.0738,0.0721,0.0606,0.0387,0.0293,0.0146,0.0083,-0.0099,-0.0096,-0.0148,-0.0264,-0.026,-0.0208,0,0,0,0,0,0,0.0393,0.0449,0.0485,0.0571,0.0622,0.0692,0.0731,0.074,0.074,0.0733,0.0624,0.0569,0.0358,0.0473,0.0144,0.0098,0.0045,-0.0197,-0.02,-0.0266,-0.0262,-0.0259,-0.0205,0,0,0,0,0]}]]